Regional Weather Roundup
Issued by NWS

Home | Current Version | Previous Version | Graphics & Text | Print | Product List | Glossary On
Versions: 1 2 3 4 5 6 7 8 9 10 11 12 13 14 15 16 17 18 19 20 21 22 23 24 25 26 27 28 29 30 31 32 33 34 35 36 37 38 39 40 41 42 43 44 45 46 47 48 49 50
000
ASUS43 KFSD 271902
RWRSD

WEATHER ROUNDUP FOR SOUTH DAKOTA
NATIONAL WEATHER SERVICE SIOUX FALLS SD
200 PM CDT WED MAY 27 2015

NOTE: "FAIR" INDICATES FEW OR NO CLOUDS BELOW 12,000 FEET WITH NO
SIGNIFICANT WEATHER AND/OR OBSTRUCTIONS TO VISIBILITY.


SDZ001>005-009-010-012>017-272000-
NORTHWEST AND NORTH CENTRAL SOUTH DAKOTA

CITY           SKY/WX    TMP DP  RH WIND       PRES   REMARKS
BUFFALO          N/A     71  53  52 S9        29.88F
FAITH            N/A     72  52  49 S21G28    29.96F
MOBRIDGE       PTSUNNY   81  48  31 SE15      29.96S
$$

SDZ012>016-024>037-041>051-057-063-072>074-272000-
SOUTHWEST AND SOUTH CENTRAL SOUTH DAKOTA

CITY           SKY/WX    TMP DP  RH WIND       PRES   REMARKS
RAPID CTY ARPT PTSUNNY   70  56  61 SE14G25   29.95F
PIERRE         MOSUNNY   79  46  31 S18G28    29.98F
CUSTER         CLOUDY    58  50  75 S5        30.04F
ELLSWORTH AFB  PTSUNNY   69  56  62 S13       29.95F
PHILIP         CLOUDY    71  57  61 SE15G24   29.98F
PINE RIDGE     MOSUNNY   72  54  53 S16G24    29.99F
WINNER         CLOUDY    77  49  37 S15       30.03F
$$

SDZ004>011-016>023-039-040-272000-
NORTHEAST SOUTH DAKOTA

CITY           SKY/WX    TMP DP  RH WIND       PRES   REMARKS
ABERDEEN       MOSUNNY   84  50  30 NW5       29.98S
WATERTOWN      SUNNY     80  48  32 NW6       30.01S
BROOKINGS      MOSUNNY   81  46  30 NW10      30.02S
$$

SDZ017-020-022-023-036>040-048>070-272000-
SOUTHEAST SOUTH DAKOTA

CITY           SKY/WX    TMP DP  RH WIND       PRES   REMARKS
SIOUX FALLS    MOSUNNY   82  53  36 CALM      30.01F
HURON          SUNNY     82  49  31 VRB5      29.99F
CHAMBERLAIN    PTSUNNY   76  51  40 SW9       30.02F
MITCHELL       SUNNY     81  50  33 SW8       30.01F
YANKTON        SUNNY     81  50  34 SW5       30.01F
$$

ABBREVIATIONS USED IN REMARKS
   TC - TEMPERATURE IN CELSIUS
  WCI - WIND CHILL INDEX
   HX - HEAT INDEX
  VSB - VISIBILITY



USA.gov is the U.S. government's official web portal to all federal, state and local government web resources and services.